User: anonymous   Login
Location: Kalberh�ni
(46.4610°N, 7.2453°E)
Time: 23:04:38
(UTC+00:00)
Language:

Cosmos 192 - Orbit

View from above orbital plane
View from above orbital plane
View from above satellite
View from above satellite

Ground track
Ground track

The orbit data is extracted from the following two-line orbital elements,

1  3047U 67116A   21262.85447643  .00000035  00000-0  14738-4 0  9994
2  3047  74.0115  65.6059 0009369 294.6280  65.3906 14.55693252847014
Epoch (UTC): 19 September 2021 20:30:26
Eccentricity: 0.0009369
inclination: 74.0115°
perigee height: 700 km
apogee height: 714 km
right ascension of ascending node: 65.6059°
argument of perigee: 294.6280°
revolutions per day: 14.55693252
mean anomaly at epoch: 65.3906°
orbit number at epoch: 84701

The dashed part of the orbit path shows where the satellite is in the earth's shadow,  

DLR